Location: Warszawa
(52.2500°N, 21.0000°E)
Time: 23:04:55
(UTC+01:00)

A-11 Canister half - Pass Details

Date: 17 February 2023
Orbit: 1526 x 1682 km, 47.3° (Epoch: 22 March)

Event Time Altitude Azimuth Distance (km) Brightness Sun altitude
Exits shadow 03:05:04 56° 171° (S) 1,772 9.1 -34.1°
Maximum altitude 03:05:28 56° 162° (SSE) 1,765 9.1 -34.0°
Drops below altitude 10° 03:14:28 10° 87° (E) 3,705 11.7 -32.8°
Sets 03:17:34 0° 84° (E) 4,698 12.5 -32.4°
